Tracking 28531 objects as of 26-Feb-2024
HD Live streaming from Space Station
objects crossing your sky now

SPACEBEE-156

Track SPACEBEE-156 now!
10-day predictions


NORAD ID: 55099
Int'l Code: 2023-001CU
Perigee: 460.7 km
Apogee: 475.9 km
Inclination: 97.4 °
Period: 93.8 minutes
Semi major axis: 6839 km
RCS: Unknown
Launch date: January 3, 2023
Source: United States (US)
Launch site: AIR FORCE EASTERN TEST RANGE (AFETR)
Your satellite tracking list
Your tracking list is empty




NASA's NSSDC Master Catalog

Two Line Element Set (TLE):
1 55099U 23001CU  24056.70975958  .00050050  00000-0  14698-2 0  9991
2 55099  97.4378 121.4123 0011132 186.0420 174.0691 15.34914898 63774
Source of the keplerian elements: AFSPC